Location: McCall
(45.0000°N, 116.0000°W)
Time: 06:18:28
(UTC-06:00)

Saudisat 1A - Visible Passes

Search period start: 05 September 2015 00:00
Search period end: 15 September 2015 00:00
Orbit: 572 x 625 km, 64.6° (Epoch: 05 September)

Date Brightness Start Highest point End Pass type
(mag) Time Alt. Az. Time Alt. Az. Time Alt. Az.
05 Sep 11.0 01:11:03 10° N 01:12:16 14° N 01:12:16 14° N visible
06 Sep 11.0 01:21:26 10° NNW 01:22:16 14° N 01:22:16 14° N visible
07 Sep 11.1 01:31:57 10° NNW 01:32:19 12° NNW 01:32:19 12° NNW visible
08 Sep 10.9 00:04:24 10° N 00:05:45 13° NNE 00:05:45 13° NNE visible
09 Sep 10.8 00:14:38 10° N 00:15:54 15° N 00:15:54 15° N visible
10 Sep 10.9 00:25:03 10° NNW 00:26:04 15° N 00:26:04 15° N visible
10 Sep 10.7 22:58:06 10° N 22:59:09 11° NNE 22:59:36 11° NNE visible
11 Sep 11.0 00:35:37 10° NNW 00:36:17 14° NNW 00:36:17 14° NNW visible
11 Sep 10.5 23:07:54 10° N 23:09:51 14° NNE 23:09:51 14° NNE visible
12 Sep 11.2 00:46:17 10° NNW 00:46:32 11° NNW 00:46:32 11° NNW visible
12 Sep 10.4 23:18:12 10° NNW 23:20:07 18° N 23:20:07 18° N visible
13 Sep 10.4 23:28:40 10° NNW 23:30:24 20° N 23:30:24 20° N visible
14 Sep 10.5 22:01:21 10° N 22:03:01 12° NNE 22:04:02 11° NE visible
14 Sep 10.5 23:39:16 10° NNW 23:40:43 20° NNW 23:40:43 20° NNW visible
